Regional Weather Roundup
Issued by NWS

Home | Current Version | Previous Version | Graphics & Text | Print | Product List | Glossary On
Versions: 1 2 3 4 5 6 7 8 9 10 11 12 13 14 15 16 17 18 19 20 21 22 23 24 25 26 27 28 29 30 31 32 33 34 35 36 37 38 39 40 41 42 43 44 45 46 47 48 49 50
000
ASUS43 KIND 242209
RWRIN

WEATHER ROUNDUP FOR INDIANA
NATIONAL WEATHER SERVICE INDIANAPOLIS IN
600 PM EDT THU JUL 24 2014

NOTE: "FAIR" INDICATES FEW OR NO CLOUDS BELOW 12,000 FEET WITH NO
SIGNIFICANT WEATHER AND/OR OBSTRUCTIONS TO VISIBILITY.

* - STATION DOES NOT REPORT WEATHER SUCH AS PRECIPITATION OR FOG.

+ - STATION NOT QUALITY CONTROLLED BY THE NATIONAL WEATHER SERVICE.
    USE DATA WITH CAUTION...ESPECIALLY DEWPOINT AND RELATIVE
    HUMIDITY OBSERVATIONS.

INZ001>003-010>013-019-020-242300-
NORTHWEST INDIANA

CITY           SKY/WX    TMP DP  RH WIND       PRES   REMARKS
GARY /AIRPORT/ MOSUNNY   72  54  53 NE10      30.10F
KNOX *+        SUNNY     73  55  52 N8        30.07F
LA PORTE +     SUNNY     70  52  53 N7        30.09F
MICHIGAN CITY+ SUNNY     68  50  52 N5        30.09F
MONTICELLO +   PTSUNNY   73  55  53 N5        30.07S
RENSSELAER +   MOSUNNY   73  52  46 CALM      30.07F
VALPARAISO     SUNNY     72  54  53 N6        30.09F

$$

LMZ046-743>745-242300-
SOUTHERN LAKE MICHIGAN

STATION/POSITION TIME  TEMP WIND        PRES
                       AIR  DIR/SP/G
                 (UTC) (F)  (DEG/KT/KT) (MB)
MICHIGAN CITY    2200   66  360/ 10/ 11   N/A

$$

INZ004-005-014>016-021>024-242300-
NORTH CENTRAL INDIANA

CITY           SKY/WX    TMP DP  RH WIND       PRES   REMARKS
GOSHEN         MOSUNNY   73  52  47 E3        30.07F
LOGANSPORT +   MOSUNNY   73  52  46 E3        30.08S
PERU/GRISSOM   PTSUNNY   71  55  56 NE7       30.07F
ROCHESTER +    SUNNY     75  50  41 CALM      30.07F
SOUTH BEND     SUNNY     73  53  49 NW10      30.08F
WARSAW +       SUNNY     72  52  49 CALM      30.07F

$$

INZ006>009-017-018-025>027-242300-
NORTHEAST INDIANA

CITY           SKY/WX    TMP DP  RH WIND       PRES   REMARKS
ANGOLA *+      SUNNY     73  55  53 CALM      30.07F
AUBURN +       SUNNY     77  45  31 N5        30.06F
FORT WAYNE     PTSUNNY   75  50  41 E6        30.06F
HUNTINGTON +   PTSUNNY   76  53  43 E7        30.05S

$$

INZ028-029-035-036-043>045-051>053-242300-
WEST CENTRAL INDIANA

CITY           SKY/WX    TMP DP  RH WIND       PRES   REMARKS
GREENCASTLE +  MOSUNNY   73  54  49 N7        30.06F
LAFAYETTE      MOSUNNY   75  53  46 NE8       30.06F
TERRE HAUTE    PTSUNNY   77  57  50 VRB3      30.04F

$$

INZ030>032-037>040-046>048-054>057-064-065-242300-
CENTRAL INDIANA

CITY           SKY/WX    TMP DP  RH WIND       PRES   REMARKS
CP ATTERBURY + SUNNY     75  50  41 N8        30.06S
COLUMBUS       MOSUNNY   73  54  49 NE9       30.05F
FRANKFORT +    MOSUNNY   75  54  46 N7        30.08
INDIANAPOLIS   MOSUNNY   75  51  43 NE10      30.04F
-EAGLE CREEK   MOSUNNY   74  50  42 N7        30.05F
KOKOMO *+      PTSUNNY   73  52  46 CALM      30.06S
MARION +       PTSUNNY   74  50  42 E6        30.06F
MT COMFORT *+  PTSUNNY   72  55  56 E8        30.06F
SHELBYVILLE    MOSUNNY   77  54  44 NE7       30.05F
ZIONSVILLE +   PTSUNNY   74  50  43 NE5       30.07F

$$

INZ033-034-041-042-049-050-058-059-242300-
EAST CENTRAL INDIANA

CITY           SKY/WX    TMP DP  RH WIND       PRES   REMARKS
MUNCIE         PTSUNNY   74  49  41 NE10      30.06F

$$

INZ060-061-067>069-081>083-085>088-242300-
SOUTHWEST INDIANA

CITY           SKY/WX    TMP DP  RH WIND       PRES   REMARKS
EVANSVILLE     MOSUNNY   80  54  40 NE9       30.03F
HUNTINGBURG *+ PTSUNNY   79  55  44 NE10      30.03F
WASHINGTON +   MOSUNNY   76  59  55 E7        30.02F

$$

INZ062-063-066-070>080-084-089>092-242300-
SOUTH CENTRAL AND SOUTHEAST INDIANA

CITY           SKY/WX    TMP DP  RH WIND       PRES   REMARKS
BLOOMINGTON    MOSUNNY   76  55  48 N7        30.05F
NORTH VERNON + MOSUNNY   75  54  46 N9        30.05

$$




USA.gov is the U.S. government's official web portal to all federal, state and local government web resources and services.